Startpagina
METAR-TAF:

METAR-TAF

Vliegvelden :

Productieplatform

Euro, Nederland

breedte: 51-59-52N, lengte: 3-16-30E, hoogte: 18 m

Actueel weer

Dit bericht is 26 minuten geleden gemaakt, om 00:55 UTC
Wind 21 kt uit het oosten
Temperatuur 8°C
Vochtigheid 66%
Druk 1029 hPa
Zicht 10 km of meer

METAR: EHSA 180055Z AUTO 08021KT 9999 ///////// 08/02 Q1029 W11/H13

Tijdstip: 02:21 (01:21 UTC)


TAF: ontbreekt

Waarnemingen en weersverwachtingen van meer dan 4000 vliegvelden (METAR en TAF).

De beschikbare stations zijn de gele en rode punten op de kaart.

Ga met uw muis naar het station om de naam te zien.

Klik dan om waarnemingen en weersverwachtingen te zien.

kaart wijzigen: klik op de groene knoppen met een zwart kruis om in te zoomen, op de groene knop met een streepje om uit te zoomen of op de groene pijlen voor aangrenzende kaarten.


METAR-TAF: